Flag for U.S.A. Weather past 2 weeks in Pasco, Washington, U.S.A.

Now
76 °F

Sunny.


Feels Like: 78 °F
Forecast: 58 / 83 °F
Wind: 5 mph from Northwest

Location: Tri-Cities Airport

Current Time: Aug 23, 2014 at 12:58:00 PM

Latest Report: Aug 23, 2014 at 11:53 AM


Visibility: 10 mi

Pressure: 30.10 "Hg

Humidity: 42%

Dew point: 51 °F

Location of PascoLocation

Historic Weather in Pasco — Graph

°F

Pasco temperature yesterday

Maximum temperature yesterday: 84 °F (at 2:53 PM)
Minimum temperature yesterday: 56 °F (at 5:53 AM)
Average temperature yesterday: 71 °F

Past Weeks' High & Low Weather Summary

 TemperatureHumidityPressure
High97 °F (Aug 11, 3:53 PM)100% (Aug 15, 4:53 AM)30.11 "Hg (Aug 15, 4:53 AM)
Low51 °F (Aug 9, 5:53 AM)14% (Aug 21, 7:53 PM)29.57 "Hg (Aug 19, 5:53 PM)
Average76 °F54%29.89 "Hg
* Reported Aug 8 11:53 AM — Aug 23 11:53 AM, Pasco, Weather by CustomWeather, © 2014

Note: Actual official high and low records may vary slightly from our data, if they occured in-between our weather recording intervals... More about our weather records

Advertising

Pasco weather history for previous 24 hours

 ConditionsComfort  
Time TempWeatherWind HumidityBarometerVisibility
11:53 AM
Aug 23
76 °FSunny.5 mph42%30.10 "Hg10 mi
10:53 AM73 °FSunny.N/A48%30.11 "Hg10 mi
9:53 AM71 °FSunny.6 mph51%30.11 "Hg10 mi
8:53 AM67 °FSunny.8 mph61%30.11 "Hg10 mi
7:53 AM62 °FSunny.5 mph73%30.11 "Hg10 mi
6:53 AM57 °FClear.7 mph87%30.09 "Hg10 mi
5:53 AM57 °FClear.6 mph87%30.08 "Hg10 mi
4:53 AM58 °FClear.8 mph84%30.05 "Hg10 mi
3:53 AM57 °FClear.6 mph83%30.04 "Hg10 mi
2:53 AM63 °FClear.3 mph73%30.04 "Hg10 mi
1:53 AM63 °FClear.No wind70%30.02 "Hg10 mi
12:53 AM65 °FClear.17 mph66%30.00 "Hg10 mi
11:53 PM
Aug 22
66 °FClear.13 mph63%30.00 "Hg10 mi
10:53 PM70 °FClear.7 mph51%29.99 "Hg10 mi
9:53 PM69 °FPassing clouds.7 mph53%29.97 "Hg10 mi
8:53 PM72 °FClear.15 mph48%29.94 "Hg10 mi
7:53 PM74 °FSunny.15 mph46%29.91 "Hg10 mi
6:53 PM77 °FSunny.8 mph44%29.90 "Hg10 mi
5:53 PM83 °FSunny.12 mph33%29.89 "Hg10 mi
4:53 PM84 °FSunny.13 mph33%29.88 "Hg10 mi
3:53 PM84 °FPassing clouds.14 mph32%29.89 "Hg10 mi
2:53 PM84 °FSunny.13 mph32%29.90 "Hg10 mi
1:53 PM82 °FSunny.8 mph37%29.91 "Hg10 mi
12:53 PM79 °FPassing clouds.10 mph41%29.92 "Hg10 mi
Weather by CustomWeather, © 2014

See weather overviewHow to use our weather pages